Location: Tamazert
(32.6352°N, 5.2072°W)
Time: 15:41:52
(UTC+00:00)

Vanguard 3 - Pass Details

Date: 10 October 2022
Orbit: 509 x 3255 km, 33.3° (Epoch: 08 December)

Event Time Altitude Azimuth Distance (km) Brightness Sun altitude
Rises 09:26:57 0° 278° (W) 2,636 9.4 35.1°
Reaches altitude 10° 09:28:53 10° 278° (W) 1,823 8.6 35.5°
Maximum altitude 09:32:51 88° 189° (S) 674 7.4 36.1°
Drops below altitude 10° 09:38:47 10° 101° (E) 2,687 10.8 37.1°
Sets 09:42:10 0° 101° (E) 4,039 11.4 37.6°
